AVR5228 SKBO-SKCC

Flight info

Callsign AVR5228
Flight time N/A
Altitude 29000
Route OSUSU4R OSUSU DCT BUV DCT ESNUT ESNUT2A
Aircraft A320/M-SDE3FGHIRWY/LB1

Departure

Time 2026-04-30 22:07
Airport El Dorado International Airport (SKBO)

Arrival

Time N/A
Airport Camilo Daza International Airport (SKCC)
Time Latitude Longitude Altitude Speed Heading
2026-04-30 21:51 4.69811 -74.14561 8371 ft 0 kts 36°
2026-04-30 22:00 4.69801 -74.14568 8372 ft 4 kts 36°
2026-04-30 22:00 4.69783 -74.14582 8372 ft 4 kts 27°
2026-04-30 22:01 4.69761 -74.14585 8373 ft 4 kts 328°
2026-04-30 22:01 4.69741 -74.14567 8370 ft 4 kts 308°
2026-04-30 22:01 4.69739 -74.14565 8371 ft 4 kts 307°
2026-04-30 22:01 4.69755 -74.14586 8373 ft 4 kts 307°
2026-04-30 22:02 4.69771 -74.14608 8373 ft 4 kts 307°
2026-04-30 22:02 4.69788 -74.14629 8373 ft 4 kts 307°
2026-04-30 22:02 4.69791 -74.14634 8373 ft 0 kts 307°
2026-04-30 22:03 4.69793 -74.14636 8373 ft 3 kts 307°
2026-04-30 22:04 4.69821 -74.14674 8373 ft 11 kts 307°
2026-04-30 22:04 4.69834 -74.14691 8373 ft 0 kts 306°
2026-04-30 22:04 4.69969 -74.14658 8373 ft 16 kts 36°
2026-04-30 22:05 4.70060 -74.14591 8373 ft 17 kts 36°
2026-04-30 22:05 4.70154 -74.14519 8373 ft 17 kts 38°
2026-04-30 22:05 4.70250 -74.14443 8373 ft 18 kts 38°
2026-04-30 22:05 4.70351 -74.14367 8373 ft 18 kts 36°
2026-04-30 22:06 4.70468 -74.14318 8373 ft 19 kts 353°
2026-04-30 22:06 4.70670 -74.14333 8372 ft 4 kts 56°
2026-04-30 22:06 4.70661 -74.14312 8389 ft 8 kts 121°
2026-04-30 22:07 4.70514 -74.14124 8371 ft 71 kts 128°
2026-04-30 22:07 4.70074 -74.13539 8371 ft 136 kts 127°
2026-04-30 22:07 4.69392 -74.12639 8465 ft 180 kts 129°
2026-04-30 22:07 4.68679 -74.11608 9355 ft 181 kts 115°
2026-04-30 22:08 4.68615 -74.10386 9846 ft 181 kts 64°
2026-04-30 22:08 4.69473 -74.09497 10336 ft 183 kts 25°
2026-04-30 22:08 4.70686 -74.09088 10807 ft 184 kts 19°
2026-04-30 22:08 4.71908 -74.08702 11284 ft 184 kts 21°
2026-04-30 22:09 4.73153 -74.08300 11574 ft 196 kts 22°
2026-04-30 22:09 4.74509 -74.07854 11725 ft 213 kts 21°
2026-04-30 22:09 4.75973 -74.07371 11859 ft 230 kts 21°
2026-04-30 22:09 4.77557 -74.06847 12015 ft 250 kts 20°
2026-04-30 22:10 4.79235 -74.06293 12527 ft 260 kts 20°
2026-04-30 22:10 4.81026 -74.05695 12509 ft 283 kts 21°
2026-04-30 22:10 4.82971 -74.05040 12704 ft 306 kts 21°
2026-04-30 22:10 4.85070 -74.04331 12889 ft 330 kts 20°
2026-04-30 22:11 4.89663 -74.02775 13525 ft 360 kts 20°
2026-04-30 22:11 4.92030 -74.01977 14086 ft 365 kts 21°
2026-04-30 22:11 4.94448 -74.01159 14653 ft 368 kts 21°
2026-04-30 22:12 4.96890 -74.00333 15221 ft 372 kts 21°
2026-04-30 22:12 4.99351 -73.99499 15767 ft 375 kts 21°
2026-04-30 22:12 5.01836 -73.98660 16319 ft 379 kts 20°
2026-04-30 22:12 5.04377 -73.97905 16885 ft 383 kts 18°
2026-04-30 22:13 5.06967 -73.97239 17431 ft 386 kts 17°
2026-04-30 22:13 5.09597 -73.96617 17987 ft 390 kts 16°
2026-04-30 22:13 5.12256 -73.96003 18494 ft 393 kts 16°
2026-04-30 22:13 5.14930 -73.95380 18932 ft 395 kts 16°
2026-04-30 22:14 5.17616 -73.94739 19383 ft 398 kts 17°
2026-04-30 22:14 5.20318 -73.94077 19856 ft 401 kts 17°
2026-04-30 22:14 5.23037 -73.93399 20313 ft 404 kts 17°
2026-04-30 22:14 5.25773 -73.92710 20780 ft 407 kts 17°
2026-04-30 22:15 5.28528 -73.92015 21184 ft 410 kts 17°
2026-04-30 22:15 5.31271 -73.91326 21604 ft 413 kts 16°
2026-04-30 22:15 5.34075 -73.90627 22032 ft 416 kts 16°
2026-04-30 22:15 5.36899 -73.89925 22454 ft 420 kts 16°
2026-04-30 22:16 5.39740 -73.89221 22878 ft 422 kts 16°
2026-04-30 22:16 5.42605 -73.88511 23236 ft 425 kts 16°
2026-04-30 22:17 5.51302 -73.86338 24322 ft 432 kts 17°
2026-04-30 22:17 5.54120 -73.85308 24691 ft 431 kts 27°
2026-04-30 22:17 5.59399 -73.82399 25333 ft 435 kts 30°
2026-04-30 22:18 5.62048 -73.80914 25650 ft 437 kts 30°
2026-04-30 22:18 5.67405 -73.77929 26284 ft 443 kts 30°
2026-04-30 22:19 5.72829 -73.74906 26866 ft 448 kts 30°
2026-04-30 22:19 5.75562 -73.73377 27152 ft 451 kts 29°
2026-04-30 22:19 5.81073 -73.70294 27730 ft 456 kts 29°
2026-04-30 22:20 5.83813 -73.68759 28007 ft 458 kts 29°
2026-04-30 22:20 5.89419 -73.65621 28531 ft 464 kts 28°
2026-04-30 22:20 5.92286 -73.64021 28855 ft 465 kts 28°
2026-04-30 22:21 5.97821 -73.60925 28955 ft 447 kts 28°
2026-04-30 22:21 6.03208 -73.57903 28931 ft 442 kts 28°
2026-04-30 22:22 6.08566 -73.54899 28927 ft 441 kts 28°
2026-04-30 22:22 6.13934 -73.51895 28896 ft 441 kts 28°
2026-04-30 22:23 6.19294 -73.48901 28909 ft 441 kts 28°
2026-04-30 22:23 6.24667 -73.45883 28912 ft 449 kts 28°
2026-04-30 22:24 6.30253 -73.42746 28892 ft 468 kts 28°
2026-04-30 22:24 6.36014 -73.39519 28893 ft 484 kts 28°
2026-04-30 22:25 6.41979 -73.36179 28893 ft 497 kts 28°
2026-04-30 22:25 6.47056 -73.33330 28892 ft 500 kts 28°
2026-04-30 22:26 6.56175 -73.28214 28870 ft 499 kts 28°
2026-04-30 22:27 6.62204 -73.24826 28876 ft 499 kts 28°
2026-04-30 22:27 6.71318 -73.19704 28890 ft 499 kts 28°
2026-04-30 22:28 6.80382 -73.14618 28890 ft 499 kts 28°
2026-04-30 22:29 6.92518 -73.07788 28925 ft 499 kts 28°
2026-04-30 22:30 7.04497 -73.01052 28183 ft 474 kts 28°
2026-04-30 22:31 7.12994 -72.96266 27838 ft 446 kts 29°
2026-04-30 22:32 7.20749 -72.91908 27405 ft 408 kts 29°
2026-04-30 22:32 7.25631 -72.89155 26918 ft 398 kts 29°
2026-04-30 22:33 7.32842 -72.85096 25742 ft 403 kts 30°
2026-04-30 22:33 7.37681 -72.82371 25020 ft 393 kts 31°
2026-04-30 22:34 7.44735 -72.78396 23843 ft 383 kts 31°
2026-04-30 22:35 7.49329 -72.75805 22551 ft 373 kts 31°
2026-04-30 22:36 7.58190 -72.70872 19824 ft 354 kts 31°
2026-04-30 22:36 7.60333 -72.69686 19188 ft 349 kts 31°
2026-04-30 22:37 7.66736 -72.66137 16736 ft 350 kts 31°
2026-04-30 22:37 7.68835 -72.64973 16240 ft 338 kts 31°
2026-04-30 22:37 7.72839 -72.62755 15374 ft 319 kts 31°
2026-04-30 22:38 7.76648 -72.60643 14373 ft 311 kts 31°
2026-04-30 22:38 7.80270 -72.58634 13725 ft 288 kts 31°
2026-04-30 22:39 7.82011 -72.57667 13247 ft 283 kts 31°
2026-04-30 22:39 7.87045 -72.54867 11884 ft 268 kts 32°
2026-04-30 22:40 7.91964 -72.52133 10062 ft 274 kts 31°
2026-04-30 22:41 7.97214 -72.51114 8755 ft 240 kts
2026-04-30 22:41 8.00276 -72.50928 8197 ft 209 kts
2026-04-30 22:42 8.06236 -72.50836 6127 ft 224 kts 342°
2026-04-30 22:43 8.08451 -72.52916 4984 ft 223 kts 291°
2026-04-30 22:43 8.08396 -72.55840 4232 ft 204 kts 245°
2026-04-30 22:44 8.06523 -72.57732 3704 ft 187 kts 203°
2026-04-30 22:45 8.01865 -72.56715 2837 ft 180 kts 147°
2026-04-30 22:45 7.99533 -72.55877 2711 ft 180 kts 167°
2026-04-30 22:46 7.97088 -72.55336 2711 ft 181 kts 166°
2026-04-30 22:47 7.92649 -72.54356 2705 ft 146 kts 165°
2026-04-30 22:47 7.90674 -72.53917 2692 ft 147 kts 165°
2026-04-30 22:48 7.88704 -72.53480 2603 ft 144 kts 165°
2026-04-30 22:49 7.85770 -72.52791 2620 ft 143 kts 153°
2026-04-30 22:49 7.84249 -72.50466 2681 ft 141 kts 89°
2026-04-30 22:50 7.86776 -72.47941 2354 ft 145 kts
2026-04-30 22:51 7.88643 -72.48679 1877 ft 148 kts 330°
2026-04-30 22:51 7.90392 -72.49740 1501 ft 144 kts 332°
2026-04-30 22:52 7.91251 -72.50263 1349 ft 143 kts 330°
2026-04-30 22:52 7.93081 -72.51336 2277 ft 157 kts 331°
2026-04-30 22:53 7.95032 -72.52305 3669 ft 156 kts 333°
2026-04-30 22:53 7.96884 -72.53538 4474 ft 177 kts 309°
2026-04-30 22:53 7.97354 -72.54749 4688 ft 201 kts 270°
2026-04-30 22:54 7.95458 -72.56765 5332 ft 226 kts 180°
2026-04-30 22:55 7.92841 -72.53558 6001 ft 220 kts 101°
2026-04-30 22:55 7.91011 -72.51286 6005 ft 223 kts 161°
2026-04-30 22:56 7.87911 -72.50963 6004 ft 224 kts 173°
2026-04-30 22:56 7.83306 -72.51190 6084 ft 230 kts 208°
2026-04-30 22:57 7.81609 -72.53907 6132 ft 241 kts 264°
2026-04-30 22:57 7.82784 -72.56971 6007 ft 244 kts 324°
2026-04-30 22:58 7.85879 -72.57258 6008 ft 230 kts 35°
2026-04-30 22:59 7.88342 -72.53340 6002 ft 224 kts 63°
2026-04-30 22:59 7.92359 -72.51602 5725 ft 211 kts